owner,sensor,date,latitude,longitude,air_pressure(mBar),qcFlag 
NDBC,ioos:station:wmo:42036:1,2015-12-01T00:50:00Z,28.5000,-84.5170,1017.8,1111122 
NDBC,ioos:station:wmo:42036:1,2015-12-01T01:50:00Z,28.5000,-84.5170,1017.7,1111122 
NDBC,ioos:station:wmo:42036:1,2015-12-01T02:50:00Z,28.5000,-84.5170,1017.6,1111122 
NDBC,ioos:station:wmo:42036:1,2015-12-01T03:50:00Z,28.5000,-84.5170,1017.7,1111122 
NDBC,ioos:station:wmo:42036:1,2015-12-01T04:50:00Z,28.5000,-84.5170,1017.1,1111122 
NDBC,ioos:station:wmo:42036:1,2015-12-01T05:50:00Z,28.5000,-84.5170,1016.5,1111122 
NDBC,ioos:station:wmo:42036:1,2015-12-01T06:50:00Z,28.5000,-84.5170,1016.7,1111122 
NDBC,ioos:station:wmo:42036:1,2015-12-01T07:50:00Z,28.5000,-84.5170,1016.7,1111122 
NDBC,ioos:station:wmo:42036:1,2015-12-01T08:50:00Z,28.5000,-84.5170,1015.8,1111122 
NDBC,ioos:station:wmo:42036:1,2015-12-01T09:50:00Z,28.5000,-84.5170,1016.4,1111122 
NDBC,ioos:station:wmo:42036:1,2015-12-01T10:50:00Z,28.5000,-84.5170,1016.5,1111122 
NDBC,ioos:station:wmo:42036:1,2015-12-01T11:50:00Z,28.5000,-84.5170,1016.9,1111122 
NDBC,ioos:station:wmo:42036:1,2015-12-01T12:50:00Z,28.5000,-84.5170,1017.1,1111122 
NDBC,ioos:station:wmo:42036:1,2015-12-01T13:50:00Z,28.5000,-84.5170,1017.6,1111122 
NDBC,ioos:station:wmo:42036:1,2015-12-01T14:50:00Z,28.5000,-84.5170,1018.3,1111122 
NDBC,ioos:station:wmo:42036:1,2015-12-01T15:50:00Z,28.5000,-84.5170,1018.0,1111122 
NDBC,ioos:station:wmo:42036:1,2015-12-01T16:50:00Z,28.5000,-84.5170,1017.3,1111122 
NDBC,ioos:station:wmo:42036:1,2015-12-01T17:50:00Z,28.5000,-84.5170,1016.3,1111122 
NDBC,ioos:station:wmo:42036:1,2015-12-01T18:50:00Z,28.5000,-84.5170,1015.2,1111122 
NDBC,ioos:station:wmo:42036:1,2015-12-01T19:50:00Z,28.5000,-84.5170,1014.6,1111122 
NDBC,ioos:station:wmo:42036:1,2015-12-01T20:50:00Z,28.5000,-84.5170,1014.2,1111122 
NDBC,ioos:station:wmo:42036:1,2015-12-01T21:50:00Z,28.5000,-84.5170,1014.5,1111122 
NDBC,ioos:station:wmo:42036:1,2015-12-01T22:50:00Z,28.5000,-84.5170,1014.8,1111122 
NDBC,ioos:station:wmo:42036:1,2015-12-01T23:50:00Z,28.5000,-84.5170,1015.1,1111122 
NDBC,ioos:station:wmo:42036:1,2015-12-02T00:50:00Z,28.5000,-84.5170,1014.8,1111122 
NDBC,ioos:station:wmo:42036:1,2015-12-02T01:50:00Z,28.5000,-84.5170,1015.3,1111122 
NDBC,ioos:station:wmo:42036:1,2015-12-02T02:50:00Z,28.5000,-84.5170,1015.3,1111122 
NDBC,ioos:station:wmo:42036:1,2015-12-02T03:50:00Z,28.5000,-84.5170,1015.5,1111122 
NDBC,ioos:station:wmo:42036:1,2015-12-02T04:50:00Z,28.5000,-84.5170,1015.4,1111122 
NDBC,ioos:station:wmo:42036:1,2015-12-02T05:50:00Z,28.5000,-84.5170,1014.6,1111122 
NDBC,ioos:station:wmo:42036:1,2015-12-02T06:50:00Z,28.5000,-84.5170,1013.9,1111122 
NDBC,ioos:station:wmo:42036:1,2015-12-02T07:50:00Z,28.5000,-84.5170,1013.4,1111122 
NDBC,ioos:station:wmo:42036:1,2015-12-02T08:50:00Z,28.5000,-84.5170,1013.0,1111122 
NDBC,ioos:station:wmo:42036:1,2015-12-02T09:50:00Z,28.5000,-84.5170,1012.7,1111122 
NDBC,ioos:station:wmo:42036:1,2015-12-02T10:50:00Z,28.5000,-84.5170,1012.7,1111122 
NDBC,ioos:station:wmo:42036:1,2015-12-02T11:50:00Z,28.5000,-84.5170,1012.7,1111122 
NDBC,ioos:station:wmo:42036:1,2015-12-02T12:50:00Z,28.5000,-84.5170,1013.3,1111122 
NDBC,ioos:station:wmo:42036:1,2015-12-02T13:50:00Z,28.5000,-84.5170,1013.9,1111122 
NDBC,ioos:station:wmo:42036:1,2015-12-02T14:50:00Z,28.5000,-84.5170,1014.3,1111122 
NDBC,ioos:station:wmo:42036:1,2015-12-02T15:50:00Z,28.5000,-84.5170,1014.0,1111122 
NDBC,ioos:station:wmo:42036:1,2015-12-02T16:50:00Z,28.5000,-84.5170,1013.8,1111122 
NDBC,ioos:station:wmo:42036:1,2015-12-02T17:50:00Z,28.5000,-84.5170,1013.1,1111122 
NDBC,ioos:station:wmo:42036:1,2015-12-02T18:50:00Z,28.5000,-84.5170,1012.3,1111122 
NDBC,ioos:station:wmo:42036:1,2015-12-02T19:50:00Z,28.5000,-84.5170,1012.0,1111122 
NDBC,ioos:station:wmo:42036:1,2015-12-02T20:50:00Z,28.5000,-84.5170,1012.6,1111122 
NDBC,ioos:station:wmo:42036:1,2015-12-02T21:50:00Z,28.5000,-84.5170,1012.6,1111122 
NDBC,ioos:station:wmo:42036:1,2015-12-02T22:50:00Z,28.5000,-84.5170,1013.1,1111122 
NDBC,ioos:station:wmo:42036:1,2015-12-02T23:50:00Z,28.5000,-84.5170,1013.6,1111122 
NDBC,ioos:station:wmo:42036:1,2015-12-03T00:50:00Z,28.5000,-84.5170,1014.1,1111122 
NDBC,ioos:station:wmo:42036:1,2015-12-03T01:50:00Z,28.5000,-84.5170,1014.5,1111122 
NDBC,ioos:station:wmo:42036:1,2015-12-03T02:50:00Z,28.5000,-84.5170,1015.3,1111122 
NDBC,ioos:station:wmo:42036:1,2015-12-03T03:50:00Z,28.5000,-84.5170,1015.4,1111122 
NDBC,ioos:station:wmo:42036:1,2015-12-03T04:50:00Z,28.5000,-84.5170,1015.7,1111122 
NDBC,ioos:station:wmo:42036:1,2015-12-03T05:50:00Z,28.5000,-84.5170,1015.6,1111122 
NDBC,ioos:station:wmo:42036:1,2015-12-03T06:50:00Z,28.5000,-84.5170,1015.7,1111122 
NDBC,ioos:station:wmo:42036:1,2015-12-03T07:50:00Z,28.5000,-84.5170,1015.6,1111122 
NDBC,ioos:station:wmo:42036:1,2015-12-03T08:50:00Z,28.5000,-84.5170,1015.5,1111122 
NDBC,ioos:station:wmo:42036:1,2015-12-03T09:50:00Z,28.5000,-84.5170,1015.5,1111122 
NDBC,ioos:station:wmo:42036:1,2015-12-03T10:50:00Z,28.5000,-84.5170,1016.4,1111122 
NDBC,ioos:station:wmo:42036:1,2015-12-03T11:50:00Z,28.5000,-84.5170,1017.4,1111122 
NDBC,ioos:station:wmo:42036:1,2015-12-03T12:50:00Z,28.5000,-84.5170,1018.4,1111122 
NDBC,ioos:station:wmo:42036:1,2015-12-03T13:50:00Z,28.5000,-84.5170,1019.3,1111122 
NDBC,ioos:station:wmo:42036:1,2015-12-03T14:50:00Z,28.5000,-84.5170,1020.2,1111122 
NDBC,ioos:station:wmo:42036:1,2015-12-03T15:50:00Z,28.5000,-84.5170,1020.4,1111122 
NDBC,ioos:station:wmo:42036:1,2015-12-03T16:50:00Z,28.5000,-84.5170,1020.1,1111122 
NDBC,ioos:station:wmo:42036:1,2015-12-03T17:50:00Z,28.5000,-84.5170,1019.4,1111122 
NDBC,ioos:station:wmo:42036:1,2015-12-03T18:50:00Z,28.5000,-84.5170,1018.9,1111122 
NDBC,ioos:station:wmo:42036:1,2015-12-03T19:50:00Z,28.5000,-84.5170,1019.1,1111122 
NDBC,ioos:station:wmo:42036:1,2015-12-03T20:50:00Z,28.5000,-84.5170,1018.7,1111122 
NDBC,ioos:station:wmo:42036:1,2015-12-03T21:50:00Z,28.5000,-84.5170,1019.3,1111122 
NDBC,ioos:station:wmo:42036:1,2015-12-03T22:50:00Z,28.5000,-84.5170,1020.0,1111122 
NDBC,ioos:station:wmo:42036:1,2015-12-03T23:50:00Z,28.5000,-84.5170,1019.8,1111122 
NDBC,ioos:station:wmo:42036:1,2015-12-04T00:50:00Z,28.5000,-84.5170,1020.0,1111122 
NDBC,ioos:station:wmo:42036:1,2015-12-04T01:50:00Z,28.5000,-84.5170,1020.9,1111122 
NDBC,ioos:station:wmo:42036:1,2015-12-04T02:50:00Z,28.5000,-84.5170,1021.0,1111122 
NDBC,ioos:station:wmo:42036:1,2015-12-04T03:50:00Z,28.5000,-84.5170,1021.8,1111122 
NDBC,ioos:station:wmo:42036:1,2015-12-04T04:50:00Z,28.5000,-84.5170,1020.7,1111122 
NDBC,ioos:station:wmo:42036:1,2015-12-04T05:50:00Z,28.5000,-84.5170,1020.7,1111122 
NDBC,ioos:station:wmo:42036:1,2015-12-04T06:50:00Z,28.5000,-84.5170,1021.0,1111122 
NDBC,ioos:station:wmo:42036:1,2015-12-04T07:50:00Z,28.5000,-84.5170,1021.0,1111122 
NDBC,ioos:station:wmo:42036:1,2015-12-04T08:50:00Z,28.5000,-84.5170,1020.8,1111122 
NDBC,ioos:station:wmo:42036:1,2015-12-04T09:50:00Z,28.5000,-84.5170,1020.9,1111122 
NDBC,ioos:station:wmo:42036:1,2015-12-04T10:50:00Z,28.5000,-84.5170,1021.1,1111122 
NDBC,ioos:station:wmo:42036:1,2015-12-04T11:50:00Z,28.5000,-84.5170,1022.4,1111122 
NDBC,ioos:station:wmo:42036:1,2015-12-04T12:50:00Z,28.5000,-84.5170,1022.9,1111122 
NDBC,ioos:station:wmo:42036:1,2015-12-04T13:50:00Z,28.5000,-84.5170,1023.8,1111122 
NDBC,ioos:station:wmo:42036:1,2015-12-04T14:50:00Z,28.5000,-84.5170,1024.5,1111122 
NDBC,ioos:station:wmo:42036:1,2015-12-04T15:50:00Z,28.5000,-84.5170,1024.9,1111122 
NDBC,ioos:station:wmo:42036:1,2015-12-04T16:50:00Z,28.5000,-84.5170,1024.4,1111122 
NDBC,ioos:station:wmo:42036:1,2015-12-04T17:50:00Z,28.5000,-84.5170,1023.7,1111122 
NDBC,ioos:station:wmo:42036:1,2015-12-04T18:50:00Z,28.5000,-84.5170,1023.1,1111122 
NDBC,ioos:station:wmo:42036:1,2015-12-05T00:50:00Z,28.5000,-84.5170,1025.0,1111122 
NDBC,ioos:station:wmo:42036:1,2015-12-05T06:50:00Z,28.5000,-84.5170,1026.0,1111122 
NDBC,ioos:station:wmo:42036:1,2015-12-05T12:50:00Z,28.5000,-84.5170,1027.3,1111122 
NDBC,ioos:station:wmo:42036:1,2015-12-05T18:50:00Z,28.5000,-84.5170,1025.8,1111122 
NDBC,ioos:station:wmo:42036:1,2015-12-06T00:50:00Z,28.5000,-84.5170,1026.2,1111122 
NDBC,ioos:station:wmo:42036:1,2015-12-06T06:50:00Z,28.5000,-84.5170,1026.2,1111122 
NDBC,ioos:station:wmo:42036:1,2015-12-06T11:50:00Z,28.5000,-84.5170,1025.5,1111122 
NDBC,ioos:station:wmo:42036:1,2015-12-06T16:50:00Z,28.5000,-84.5170,1026.1,1111122 
NDBC,ioos:station:wmo:42036:1,2015-12-06T17:50:00Z,28.5000,-84.5170,1025.1,1111122 
NDBC,ioos:station:wmo:42036:1,2015-12-06T18:50:00Z,28.5000,-84.5170,1024.0,1111122 
NDBC,ioos:station:wmo:42036:1,2015-12-06T19:50:00Z,28.5000,-84.5170,1023.5,1111122 
NDBC,ioos:station:wmo:42036:1,2015-12-06T20:50:00Z,28.5000,-84.5170,1022.5,1111122 
NDBC,ioos:station:wmo:42036:1,2015-12-06T21:50:00Z,28.5000,-84.5170,1022.2,1111122 
NDBC,ioos:station:wmo:42036:1,2015-12-06T22:50:00Z,28.5000,-84.5170,1022.0,1111122 
NDBC,ioos:station:wmo:42036:1,2015-12-06T23:50:00Z,28.5000,-84.5170,1022.2,1111122 
NDBC,ioos:station:wmo:42036:1,2015-12-07T00:50:00Z,28.5000,-84.5170,1022.6,1111122 
NDBC,ioos:station:wmo:42036:1,2015-12-07T01:50:00Z,28.5000,-84.5170,1023.0,1111122 
NDBC,ioos:station:wmo:42036:1,2015-12-07T02:50:00Z,28.5000,-84.5170,1022.9,1111122 
NDBC,ioos:station:wmo:42036:1,2015-12-07T04:50:00Z,28.5000,-84.5170,1022.3,1111122 
NDBC,ioos:station:wmo:42036:1,2015-12-07T05:50:00Z,28.5000,-84.5170,1021.5,1111122 
NDBC,ioos:station:wmo:42036:1,2015-12-07T06:50:00Z,28.5000,-84.5170,1021.3,1111122 
NDBC,ioos:station:wmo:42036:1,2015-12-07T07:50:00Z,28.5000,-84.5170,1020.9,1111122 
NDBC,ioos:station:wmo:42036:1,2015-12-07T08:50:00Z,28.5000,-84.5170,1020.7,1111122 
NDBC,ioos:station:wmo:42036:1,2015-12-07T09:50:00Z,28.5000,-84.5170,1020.4,1111122 
NDBC,ioos:station:wmo:42036:1,2015-12-07T10:50:00Z,28.5000,-84.5170,1020.5,1111122 
NDBC,ioos:station:wmo:42036:1,2015-12-07T11:50:00Z,28.5000,-84.5170,1020.9,1111122 
NDBC,ioos:station:wmo:42036:1,2015-12-07T12:50:00Z,28.5000,-84.5170,1021.3,1111122 
NDBC,ioos:station:wmo:42036:1,2015-12-07T13:50:00Z,28.5000,-84.5170,1021.8,1111122 
NDBC,ioos:station:wmo:42036:1,2015-12-07T14:50:00Z,28.5000,-84.5170,1022.1,1111122 
NDBC,ioos:station:wmo:42036:1,2015-12-07T15:50:00Z,28.5000,-84.5170,1022.3,1111122 
NDBC,ioos:station:wmo:42036:1,2015-12-07T16:50:00Z,28.5000,-84.5170,1021.6,1111122 
NDBC,ioos:station:wmo:42036:1,2015-12-07T17:50:00Z,28.5000,-84.5170,1020.4,1111122 
NDBC,ioos:station:wmo:42036:1,2015-12-07T18:50:00Z,28.5000,-84.5170,1019.4,1111122 
NDBC,ioos:station:wmo:42036:1,2015-12-07T20:50:00Z,28.5000,-84.5170,1018.8,1111122 
NDBC,ioos:station:wmo:42036:1,2015-12-07T21:50:00Z,28.5000,-84.5170,1018.9,1111122 
NDBC,ioos:station:wmo:42036:1,2015-12-07T22:50:00Z,28.5000,-84.5170,1019.0,1111122 
NDBC,ioos:station:wmo:42036:1,2015-12-07T23:50:00Z,28.5000,-84.5170,1019.2,1111122 
NDBC,ioos:station:wmo:42036:1,2015-12-08T01:50:00Z,28.5000,-84.5170,1020.3,1111122 
NDBC,ioos:station:wmo:42036:1,2015-12-08T02:50:00Z,28.5000,-84.5170,1020.3,1111122 
NDBC,ioos:station:wmo:42036:1,2015-12-08T03:50:00Z,28.5000,-84.5170,1020.3,1111122 
NDBC,ioos:station:wmo:42036:1,2015-12-08T04:50:00Z,28.5000,-84.5170,1020.0,1111122 
NDBC,ioos:station:wmo:42036:1,2015-12-08T05:50:00Z,28.5000,-84.5170,1019.3,1111122 
NDBC,ioos:station:wmo:42036:1,2015-12-08T06:50:00Z,28.5000,-84.5170,1019.0,1111122 
NDBC,ioos:station:wmo:42036:1,2015-12-08T07:50:00Z,28.5000,-84.5170,1018.9,1111122 
NDBC,ioos:station:wmo:42036:1,2015-12-08T08:50:00Z,28.5000,-84.5170,1018.7,1111122 
NDBC,ioos:station:wmo:42036:1,2015-12-08T09:50:00Z,28.5000,-84.5170,1019.0,1111122 
NDBC,ioos:station:wmo:42036:1,2015-12-08T10:50:00Z,28.5000,-84.5170,1019.0,1111122 
NDBC,ioos:station:wmo:42036:1,2015-12-08T11:50:00Z,28.5000,-84.5170,1019.6,1111122 
NDBC,ioos:station:wmo:42036:1,2015-12-08T12:50:00Z,28.5000,-84.5170,1020.2,1111122 
NDBC,ioos:station:wmo:42036:1,2015-12-08T13:50:00Z,28.5000,-84.5170,1020.6,1111122 
NDBC,ioos:station:wmo:42036:1,2015-12-08T14:50:00Z,28.5000,-84.5170,1021.2,1111122 
NDBC,ioos:station:wmo:42036:1,2015-12-08T15:50:00Z,28.5000,-84.5170,1021.1,1111122 
NDBC,ioos:station:wmo:42036:1,2015-12-08T16:50:00Z,28.5000,-84.5170,1021.0,1111122 
NDBC,ioos:station:wmo:42036:1,2015-12-08T17:50:00Z,28.5000,-84.5170,1020.2,1111122 
NDBC,ioos:station:wmo:42036:1,2015-12-08T18:50:00Z,28.5000,-84.5170,1018.9,1111122 
NDBC,ioos:station:wmo:42036:1,2015-12-08T19:50:00Z,28.5000,-84.5170,1018.2,1111122 
NDBC,ioos:station:wmo:42036:1,2015-12-08T20:50:00Z,28.5000,-84.5170,1018.2,1111122 
NDBC,ioos:station:wmo:42036:1,2015-12-08T21:50:00Z,28.5000,-84.5170,1017.9,1111122 
NDBC,ioos:station:wmo:42036:1,2015-12-08T22:50:00Z,28.5000,-84.5170,1017.9,1111122 
NDBC,ioos:station:wmo:42036:1,2015-12-08T23:50:00Z,28.5000,-84.5170,1018.3,1111122 
NDBC,ioos:station:wmo:42036:1,2015-12-09T00:50:00Z,28.5000,-84.5170,1018.6,1111122 
NDBC,ioos:station:wmo:42036:1,2015-12-09T01:50:00Z,28.5000,-84.5170,1018.7,1111122 
NDBC,ioos:station:wmo:42036:1,2015-12-09T02:50:00Z,28.5000,-84.5170,1018.6,1111122 
NDBC,ioos:station:wmo:42036:1,2015-12-09T03:50:00Z,28.5000,-84.5170,1018.3,1111122 
NDBC,ioos:station:wmo:42036:1,2015-12-09T04:50:00Z,28.5000,-84.5170,1017.9,1111122 
NDBC,ioos:station:wmo:42036:1,2015-12-09T05:50:00Z,28.5000,-84.5170,1017.6,1111122 
NDBC,ioos:station:wmo:42036:1,2015-12-09T06:50:00Z,28.5000,-84.5170,1017.3,1111122 
NDBC,ioos:station:wmo:42036:1,2015-12-09T07:50:00Z,28.5000,-84.5170,1017.0,1111122 
NDBC,ioos:station:wmo:42036:1,2015-12-09T08:50:00Z,28.5000,-84.5170,1017.1,1111122 
NDBC,ioos:station:wmo:42036:1,2015-12-09T09:50:00Z,28.5000,-84.5170,1017.3,1111122 
NDBC,ioos:station:wmo:42036:1,2015-12-09T10:50:00Z,28.5000,-84.5170,1017.1,1111122 
NDBC,ioos:station:wmo:42036:1,2015-12-09T11:50:00Z,28.5000,-84.5170,1017.6,1111122 
NDBC,ioos:station:wmo:42036:1,2015-12-09T12:50:00Z,28.5000,-84.5170,1018.0,1111122 
NDBC,ioos:station:wmo:42036:1,2015-12-09T13:50:00Z,28.5000,-84.5170,1018.6,1111122 
NDBC,ioos:station:wmo:42036:1,2015-12-09T14:50:00Z,28.5000,-84.5170,1019.0,1111122 
NDBC,ioos:station:wmo:42036:1,2015-12-09T15:50:00Z,28.5000,-84.5170,1019.2,1111122 
NDBC,ioos:station:wmo:42036:1,2015-12-09T16:50:00Z,28.5000,-84.5170,1018.4,1111122 
NDBC,ioos:station:wmo:42036:1,2015-12-09T17:50:00Z,28.5000,-84.5170,1017.4,1111122 
NDBC,ioos:station:wmo:42036:1,2015-12-09T18:50:00Z,28.5000,-84.5170,1016.2,1111122 
NDBC,ioos:station:wmo:42036:1,2015-12-09T19:50:00Z,28.5000,-84.5170,1015.4,1111122 
NDBC,ioos:station:wmo:42036:1,2015-12-09T20:50:00Z,28.5000,-84.5170,1015.4,1111122 
NDBC,ioos:station:wmo:42036:1,2015-12-09T21:50:00Z,28.5000,-84.5170,1015.4,1111122 
NDBC,ioos:station:wmo:42036:1,2015-12-09T22:50:00Z,28.5000,-84.5170,1015.7,1111122 
NDBC,ioos:station:wmo:42036:1,2015-12-09T23:50:00Z,28.5000,-84.5170,1016.0,1111122 
NDBC,ioos:station:wmo:42036:1,2015-12-10T00:50:00Z,28.5000,-84.5170,1016.7,1111122 
NDBC,ioos:station:wmo:42036:1,2015-12-10T01:50:00Z,28.5000,-84.5170,1017.1,1111122 
NDBC,ioos:station:wmo:42036:1,2015-12-10T02:50:00Z,28.5000,-84.5170,1017.4,1111122 
NDBC,ioos:station:wmo:42036:1,2015-12-10T03:50:00Z,28.5000,-84.5170,1017.3,1111122 
NDBC,ioos:station:wmo:42036:1,2015-12-10T04:50:00Z,28.5000,-84.5170,1017.1,1111122 
NDBC,ioos:station:wmo:42036:1,2015-12-10T05:50:00Z,28.5000,-84.5170,1016.5,1111122 
NDBC,ioos:station:wmo:42036:1,2015-12-10T06:50:00Z,28.5000,-84.5170,1016.5,1111122 
NDBC,ioos:station:wmo:42036:1,2015-12-10T07:50:00Z,28.5000,-84.5170,1016.1,1111122 
NDBC,ioos:station:wmo:42036:1,2015-12-10T08:50:00Z,28.5000,-84.5170,1016.0,1111122 
NDBC,ioos:station:wmo:42036:1,2015-12-10T09:50:00Z,28.5000,-84.5170,1015.9,1111122 
NDBC,ioos:station:wmo:42036:1,2015-12-10T10:50:00Z,28.5000,-84.5170,1016.3,1111122 
NDBC,ioos:station:wmo:42036:1,2015-12-10T11:50:00Z,28.5000,-84.5170,1016.9,1111122 
NDBC,ioos:station:wmo:42036:1,2015-12-10T12:50:00Z,28.5000,-84.5170,1017.4,1111122 
NDBC,ioos:station:wmo:42036:1,2015-12-10T13:50:00Z,28.5000,-84.5170,1017.8,1111122 
NDBC,ioos:station:wmo:42036:1,2015-12-10T14:50:00Z,28.5000,-84.5170,1018.3,1111122 
NDBC,ioos:station:wmo:42036:1,2015-12-10T16:50:00Z,28.5000,-84.5170,1018.5,1111122 
NDBC,ioos:station:wmo:42036:1,2015-12-10T17:50:00Z,28.5000,-84.5170,1018.0,1111122 
NDBC,ioos:station:wmo:42036:1,2015-12-10T18:50:00Z,28.5000,-84.5170,1017.0,1111122 
NDBC,ioos:station:wmo:42036:1,2015-12-10T19:50:00Z,28.5000,-84.5170,1016.8,1111122 
NDBC,ioos:station:wmo:42036:1,2015-12-10T20:50:00Z,28.5000,-84.5170,1016.5,1111122 
NDBC,ioos:station:wmo:42036:1,2015-12-10T21:50:00Z,28.5000,-84.5170,1016.5,1111122 
NDBC,ioos:station:wmo:42036:1,2015-12-10T22:50:00Z,28.5000,-84.5170,1016.8,1111122 
NDBC,ioos:station:wmo:42036:1,2015-12-10T23:50:00Z,28.5000,-84.5170,1016.8,1111122 
NDBC,ioos:station:wmo:42036:1,2015-12-11T00:50:00Z,28.5000,-84.5170,1017.4,1111122 
NDBC,ioos:station:wmo:42036:1,2015-12-11T01:50:00Z,28.5000,-84.5170,1017.6,1111122 
NDBC,ioos:station:wmo:42036:1,2015-12-11T02:50:00Z,28.5000,-84.5170,1017.1,1111122 
NDBC,ioos:station:wmo:42036:1,2015-12-11T03:50:00Z,28.5000,-84.5170,1016.8,1111122 
NDBC,ioos:station:wmo:42036:1,2015-12-11T04:50:00Z,28.5000,-84.5170,1017.4,1111122 
NDBC,ioos:station:wmo:42036:1,2015-12-11T05:50:00Z,28.5000,-84.5170,1017.5,1111122 
NDBC,ioos:station:wmo:42036:1,2015-12-11T06:50:00Z,28.5000,-84.5170,1017.2,1111122 
NDBC,ioos:station:wmo:42036:1,2015-12-11T07:50:00Z,28.5000,-84.5170,1017.0,1111122 
NDBC,ioos:station:wmo:42036:1,2015-12-11T08:50:00Z,28.5000,-84.5170,1017.4,1111122 
NDBC,ioos:station:wmo:42036:1,2015-12-11T09:50:00Z,28.5000,-84.5170,1017.2,1111122 
NDBC,ioos:station:wmo:42036:1,2015-12-11T10:50:00Z,28.5000,-84.5170,1017.8,1111122 
NDBC,ioos:station:wmo:42036:1,2015-12-11T11:50:00Z,28.5000,-84.5170,1018.7,1111122 
NDBC,ioos:station:wmo:42036:1,2015-12-11T12:50:00Z,28.5000,-84.5170,1019.3,1111122 
NDBC,ioos:station:wmo:42036:1,2015-12-11T13:50:00Z,28.5000,-84.5170,1020.2,1111122 
NDBC,ioos:station:wmo:42036:1,2015-12-11T14:50:00Z,28.5000,-84.5170,1020.4,1111122 
NDBC,ioos:station:wmo:42036:1,2015-12-11T15:50:00Z,28.5000,-84.5170,1020.7,1111122 
NDBC,ioos:station:wmo:42036:1,2015-12-11T16:50:00Z,28.5000,-84.5170,1020.3,1111122 
NDBC,ioos:station:wmo:42036:1,2015-12-11T17:50:00Z,28.5000,-84.5170,1019.6,1111122 
NDBC,ioos:station:wmo:42036:1,2015-12-11T18:50:00Z,28.5000,-84.5170,1018.6,1111122 
NDBC,ioos:station:wmo:42036:1,2015-12-11T19:50:00Z,28.5000,-84.5170,1017.9,1111122 
NDBC,ioos:station:wmo:42036:1,2015-12-11T20:50:00Z,28.5000,-84.5170,1017.3,1111122 
NDBC,ioos:station:wmo:42036:1,2015-12-11T21:50:00Z,28.5000,-84.5170,1017.8,1111122 
NDBC,ioos:station:wmo:42036:1,2015-12-11T22:50:00Z,28.5000,-84.5170,1018.1,1111122 
NDBC,ioos:station:wmo:42036:1,2015-12-11T23:50:00Z,28.5000,-84.5170,1018.7,1111122 
NDBC,ioos:station:wmo:42036:1,2015-12-12T00:50:00Z,28.5000,-84.5170,1019.5,1111122 
NDBC,ioos:station:wmo:42036:1,2015-12-12T01:50:00Z,28.5000,-84.5170,1020.3,1111122 
NDBC,ioos:station:wmo:42036:1,2015-12-12T02:50:00Z,28.5000,-84.5170,1020.6,1111122 
NDBC,ioos:station:wmo:42036:1,2015-12-12T03:50:00Z,28.5000,-84.5170,1020.6,1111122 
NDBC,ioos:station:wmo:42036:1,2015-12-12T04:50:00Z,28.5000,-84.5170,1020.5,1111122 
NDBC,ioos:station:wmo:42036:1,2015-12-12T05:50:00Z,28.5000,-84.5170,1020.8,1111122 
NDBC,ioos:station:wmo:42036:1,2015-12-12T06:50:00Z,28.5000,-84.5170,1021.0,1111122 
NDBC,ioos:station:wmo:42036:1,2015-12-12T07:50:00Z,28.5000,-84.5170,1020.6,1111122 
NDBC,ioos:station:wmo:42036:1,2015-12-12T08:50:00Z,28.5000,-84.5170,1020.4,1111122 
NDBC,ioos:station:wmo:42036:1,2015-12-12T09:50:00Z,28.5000,-84.5170,1020.0,1111122 
NDBC,ioos:station:wmo:42036:1,2015-12-12T10:50:00Z,28.5000,-84.5170,1020.2,1111122 
NDBC,ioos:station:wmo:42036:1,2015-12-12T11:50:00Z,28.5000,-84.5170,1021.0,1111122 
NDBC,ioos:station:wmo:42036:1,2015-12-12T12:50:00Z,28.5000,-84.5170,1021.3,1111122 
NDBC,ioos:station:wmo:42036:1,2015-12-12T13:50:00Z,28.5000,-84.5170,1022.1,1111122 
NDBC,ioos:station:wmo:42036:1,2015-12-12T14:50:00Z,28.5000,-84.5170,1022.8,1111122 
NDBC,ioos:station:wmo:42036:1,2015-12-12T15:50:00Z,28.5000,-84.5170,1022.9,1111122 
NDBC,ioos:station:wmo:42036:1,2015-12-12T16:50:00Z,28.5000,-84.5170,1022.5,1111122 
NDBC,ioos:station:wmo:42036:1,2015-12-12T17:50:00Z,28.5000,-84.5170,1021.3,1111122 
NDBC,ioos:station:wmo:42036:1,2015-12-12T18:50:00Z,28.5000,-84.5170,1020.6,1111122 
NDBC,ioos:station:wmo:42036:1,2015-12-12T19:50:00Z,28.5000,-84.5170,1020.3,1111122 
NDBC,ioos:station:wmo:42036:1,2015-12-12T20:50:00Z,28.5000,-84.5170,1019.7,1111122 
NDBC,ioos:station:wmo:42036:1,2015-12-12T21:50:00Z,28.5000,-84.5170,1019.6,1111122 
NDBC,ioos:station:wmo:42036:1,2015-12-12T22:50:00Z,28.5000,-84.5170,1019.7,1111122 
NDBC,ioos:station:wmo:42036:1,2015-12-12T23:50:00Z,28.5000,-84.5170,1019.8,1111122 
NDBC,ioos:station:wmo:42036:1,2015-12-13T00:50:00Z,28.5000,-84.5170,1020.0,1111122 
NDBC,ioos:station:wmo:42036:1,2015-12-13T01:50:00Z,28.5000,-84.5170,1020.3,1111122 
NDBC,ioos:station:wmo:42036:1,2015-12-13T02:50:00Z,28.5000,-84.5170,1019.9,1111122 
NDBC,ioos:station:wmo:42036:1,2015-12-13T03:50:00Z,28.5000,-84.5170,1019.7,1111122 
NDBC,ioos:station:wmo:42036:1,2015-12-13T04:50:00Z,28.5000,-84.5170,1019.7,1111122 
NDBC,ioos:station:wmo:42036:1,2015-12-13T05:50:00Z,28.5000,-84.5170,1019.2,1111122 
NDBC,ioos:station:wmo:42036:1,2015-12-13T06:50:00Z,28.5000,-84.5170,1018.9,1111122 
NDBC,ioos:station:wmo:42036:1,2015-12-13T07:50:00Z,28.5000,-84.5170,1018.7,1111122 
NDBC,ioos:station:wmo:42036:1,2015-12-13T08:50:00Z,28.5000,-84.5170,1018.6,1111122 
NDBC,ioos:station:wmo:42036:1,2015-12-13T09:50:00Z,28.5000,-84.5170,1018.1,1111122 
NDBC,ioos:station:wmo:42036:1,2015-12-13T10:50:00Z,28.5000,-84.5170,1017.8,1111122 
NDBC,ioos:station:wmo:42036:1,2015-12-13T11:50:00Z,28.5000,-84.5170,1018.4,1111122 
NDBC,ioos:station:wmo:42036:1,2015-12-13T12:50:00Z,28.5000,-84.5170,1018.5,1111122 
NDBC,ioos:station:wmo:42036:1,2015-12-13T13:50:00Z,28.5000,-84.5170,1018.7,1111122 
NDBC,ioos:station:wmo:42036:1,2015-12-13T14:50:00Z,28.5000,-84.5170,1018.4,1111122 
NDBC,ioos:station:wmo:42036:1,2015-12-13T15:50:00Z,28.5000,-84.5170,1018.3,1111122 
NDBC,ioos:station:wmo:42036:1,2015-12-13T16:50:00Z,28.5000,-84.5170,1017.9,1111122 
NDBC,ioos:station:wmo:42036:1,2015-12-13T17:50:00Z,28.5000,-84.5170,1017.0,1111122 
NDBC,ioos:station:wmo:42036:1,2015-12-13T18:50:00Z,28.5000,-84.5170,1016.5,1111122 
NDBC,ioos:station:wmo:42036:1,2015-12-13T19:50:00Z,28.5000,-84.5170,1015.8,1111122 
NDBC,ioos:station:wmo:42036:1,2015-12-13T20:50:00Z,28.5000,-84.5170,1015.1,1111122 
NDBC,ioos:station:wmo:42036:1,2015-12-13T21:50:00Z,28.5000,-84.5170,1014.9,1111122 
NDBC,ioos:station:wmo:42036:1,2015-12-13T22:50:00Z,28.5000,-84.5170,1014.5,1111122 
NDBC,ioos:station:wmo:42036:1,2015-12-13T23:50:00Z,28.5000,-84.5170,1014.3,1111122 
NDBC,ioos:station:wmo:42036:1,2015-12-14T00:50:00Z,28.5000,-84.5170,1014.1,1111122 
NDBC,ioos:station:wmo:42036:1,2015-12-14T01:50:00Z,28.5000,-84.5170,1014.1,1111122 
NDBC,ioos:station:wmo:42036:1,2015-12-14T02:50:00Z,28.5000,-84.5170,1014.1,1111122 
NDBC,ioos:station:wmo:42036:1,2015-12-14T03:50:00Z,28.5000,-84.5170,1013.8,1111122 
NDBC,ioos:station:wmo:42036:1,2015-12-14T04:50:00Z,28.5000,-84.5170,1013.2,1111122 
NDBC,ioos:station:wmo:42036:1,2015-12-14T05:50:00Z,28.5000,-84.5170,1012.8,1111122 
NDBC,ioos:station:wmo:42036:1,2015-12-14T06:50:00Z,28.5000,-84.5170,1012.0,1111122 
NDBC,ioos:station:wmo:42036:1,2015-12-14T07:50:00Z,28.5000,-84.5170,1011.2,1111122 
NDBC,ioos:station:wmo:42036:1,2015-12-14T08:50:00Z,28.5000,-84.5170,1011.2,1111122 
NDBC,ioos:station:wmo:42036:1,2015-12-14T09:50:00Z,28.5000,-84.5170,1010.8,1111122 
NDBC,ioos:station:wmo:42036:1,2015-12-14T10:50:00Z,28.5000,-84.5170,1010.6,1111122 
NDBC,ioos:station:wmo:42036:1,2015-12-14T11:50:00Z,28.5000,-84.5170,1010.9,1111122 
NDBC,ioos:station:wmo:42036:1,2015-12-14T12:50:00Z,28.5000,-84.5170,1011.2,1111122 
NDBC,ioos:station:wmo:42036:1,2015-12-14T14:50:00Z,28.5000,-84.5170,1011.8,1111122 